Location: Crocus Hill
(18.2167°N, 63.0667°W)
Time: 18:32:44
(UTC+00:00)

Hubble Space Telescope - Pass Details

Date: 26 January 2020
Orbit: 536 x 540 km, 28.5° (Epoch: 26 February)

Event Time Altitude Azimuth Distance (km) Brightness Sun altitude
Exits shadow 09:21:58 11° 207° (SSW) 1,704 3.2 -20.1°
Maximum altitude 09:25:14 26° 151° (SSE) 1,053 2.7 -19.4°
Drops below altitude 10° 09:28:43 10° 93° (E) 1,776 4.6 -18.6°
Sets 09:31:13 0° 81° (E) 2,667 5.5 -18.0°
